Location: Vanderbilt Planetarium & Observatory
(40.9052°N, 73.3671°W)
Time: 14:28:15
(UTC-04:00)

Daily predictions for brighter satellites

Satellite Brightness Start Highest point End
(mag) Time Altitude Azimuth Time Altitude Azimuth Time Altitude Azimuth
Cosmos 968 Rocket 3.7 20:53:59 10° SSW 20:59:10 81° WNW 21:04:26 10° NNE
Cosmos 2219 4.2 20:54:42 10° SSE 20:59:19 26° ESE 21:03:57 10° NE
Cosmos 2266 Rocket 4.4 20:55:12 10° SSE 21:01:10 47° E 21:07:04 10° NNE
Cosmos 1553 Rocket 4.1 20:57:40 10° N 21:04:07 88° E 21:10:26 10° S
CZ-4 DEB 3.9 21:01:38 10° S 21:04:42 44° W 21:07:47 10° NNW
Cosmos 1726 4.5 21:05:13 10° ENE 21:05:53 10° ENE 21:06:32 10° E
Tiangong 1 2.8 21:05:56 10° S 21:07:44 14° SE 21:09:31 10° ESE
Cosmos 2322 4.2 21:02:21 10° NNW 21:07:54 49° ENE 21:13:24 10° SE
Cosmos 1441 Rocket 3.2 21:05:47 10° S 21:09:33 90° SSE 21:13:19 10° N
SPOT 5 3.4 21:05:22 10° SE 21:09:39 42° ENE 21:14:11 10° N
Cosmos 1151 Rocket 3.4 21:06:06 10° N 21:10:15 46° E 21:14:25 10° SSE
Cosmos 2322 Rocket 2.8 21:04:57 10° NNW 21:10:27 57° WSW 21:15:56 10° S
Cosmos 2058 4.2 21:13:09 10° SE 21:16:23 23° E 21:19:38 10° NE
AVUM R/B 2.3 21:15:09 10° SSW 21:17:26 86° ESE 21:19:57 10° NNE
Cosmos 2360 Rocket 2.4 21:14:29 10° NNW 21:20:07 62° ENE 21:25:33 11° SE
SL-16 R/B 3.0 21:15:44 10° NW 21:21:12 50° WSW 21:26:38 10° S
Envisat 3.0 21:17:18 10° SSE 21:22:21 76° ENE 21:27:27 10° N
PSLV R/B 3.6 21:22:12 12° SSE 21:24:55 45° ENE 21:27:52 10° N
ERS-1 Rocket 3.5 21:21:29 10° S 21:26:26 58° W 21:31:25 10° NNW
Cosmos 304 Rocket 3.9 21:22:24 10° NNW 21:27:12 62° ENE 21:31:32 12° SSE
Cosmos 1437 3.0 21:25:54 10° S 21:29:04 49° E 21:32:16 10° NNE
MetOp-B 4.4 21:24:30 10° SSE 21:29:42 56° ENE 21:34:57 10° N
Cosmos 1908 3.3 21:26:57 10° N 21:30:52 87° W 21:34:47 10° S
Cosmos 2112 Rocket 4.2 21:28:17 10° NNW 21:33:28 58° ENE 21:37:55 14° SE
H-2A R/B 2.6 21:29:13 10° S 21:33:42 63° WSW 21:38:13 10° NNW
Cosmos 1707 Rocket 4.5 21:31:26 10° NNE 21:35:23 32° ENE 21:38:20 16° SE
Cosmos 1666 Rocket 4.5 21:36:11 14° SE 21:39:11 30° E 21:43:03 10° NNE
NOSS 3-1 (C) 3.6 21:36:45 10° S 21:42:16 47° ESE 21:48:20 10° NE
DELTA 2 R/B (1) 3.7 21:37:03 10° W 21:42:30 58° SSW 21:46:52 16° ESE
Cosmos 1674 3.1 21:39:18 10° SSW 21:43:05 65° W 21:46:57 10° N
Nadezhda 2 Rocket 4.5 21:37:09 10° S 21:43:14 66° E 21:49:16 10° NNE
ATLAS CENTAUR R/B 4.3 21:45:22 10° W 21:46:07 10° WSW 21:46:52 10° WSW
Cosmos 2227 Rocket 3.7 21:45:18 14° ESE 21:46:50 16° E 21:50:05 10° ENE
Cosmos 1939 Rocket 4.1 21:47:31 10° SSW 21:51:12 37° W 21:54:52 10° NNW
Cosmos 1300 3.0 21:50:59 10° N 21:54:44 50° E 21:56:54 23° SSE
Cosmos 405 4.1 21:52:49 10° NNW 21:56:16 42° W 21:59:42 10° SSW
Cosmos 2333 Rocket 3.7 21:52:36 10° N 21:57:20 26° NE 22:01:13 13° ESE
SL-16 R/B 4.5 21:57:21 10° NNE 21:59:18 12° NE 22:01:15 10° ENE
H-2A R/B 3.1 21:58:29 18° ESE 22:01:42 33° ENE 22:06:32 10° N
Terra 3.1 22:00:09 18° ESE 22:02:38 27° ENE 22:06:38 10° N
YAOGAN 6 2.6 22:00:52 20° S 22:03:17 81° WSW 22:06:55 10° NNW
COSMOS 2428 2.7 22:03:42 10° NNW 22:09:24 76° ENE 22:13:00 23° SSE
Cosmos 1680 Rocket 4.0 22:05:11 10° NNW 22:10:18 56° WSW 22:14:23 16° S
CZ-4B R/B 3.6 22:06:57 10° NNE 22:12:16 87° WNW 22:17:28 10° SSW
SPOT 1/Viking Rocket 3.5 22:10:08 19° S 22:13:50 83° WSW 22:19:01 10° NNW
Cosmos 2297 Rocket 3.6 22:13:15 18° ESE 22:13:58 19° E 22:17:46 10° ENE
Delta 2 Rocket 3.5 22:11:38 10° WSW 22:14:49 33° S 22:15:00 33° S
OAO 2 Rocket 4.2 22:12:02 10° SW 22:16:41 31° SSE 22:18:12 26° SE
Cosmos 1455 3.7 22:14:24 10° NNE 22:17:22 21° ENE 22:18:08 20° E
CZ-4 R/B 3.8 22:16:32 10° NNE 22:21:31 84° ESE 22:25:21 17° SSW
Cosmos 2219 Rocket 2.7 22:16:24 10° NNW 22:21:49 48° ENE 22:24:46 25° ESE
ARGOS 3.2 22:18:17 22° SSE 22:21:54 85° WSW 22:27:20 10° NNW
Cosmos 2242 Rocket 3.7 22:17:43 10° N 22:22:09 62° E 22:24:09 31° SSE
Cosmos 1898 Rocket 3.4 22:19:09 14° S 22:23:37 74° ESE 22:28:49 10° NNE
FALCON 9 R/B 4.1 21:57:30 10° WSW 22:27:16 65° S 22:33:41 15° ESE
CZ-4C R/B 3.0 22:26:40 43° SE 22:27:39 68° ENE 22:31:07 10° N
Cosmos 2150 Rocket 4.0 22:22:49 12° SSW 22:27:56 83° ESE 22:33:26 10° NNE
Cosmos 858 Rocket 4.4 22:25:57 16° S 22:30:06 77° ESE 22:35:19 10° NNE
Cosmos 2237 4.4 22:25:17 10° NNW 22:30:59 69° WSW 22:34:15 26° S
SAR-Lupe-2 4.3 22:31:51 34° E 22:32:31 37° ENE 22:35:51 10° N
USA 245 3.7 22:32:06 26° SW 22:32:37 29° W 22:34:47 10° NW
DELTA 2 DEB (DPAF) 4.1 22:31:49 33° SSE 22:33:49 85° ENE 22:38:20 10° NNW
Cosmos 1862 Rocket 4.3 22:29:57 10° N 22:33:59 36° ENE 22:35:04 31° ESE
CARTOSAT-1 3.7 22:34:08 36° SE 22:35:38 58° ENE 22:39:53 10° N
SeaSat 1 4.5 22:32:39 11° E 22:35:38 18° NE 22:38:55 10° N
SL-08 RB Rocket 3.8 22:34:43 29° S 22:36:58 67° WSW 22:41:27 10° NNW
Sich 1 3.3 22:34:25 20° SSW 22:37:21 68° W 22:41:46 10° N
Cosmos 1980 4.2 22:33:29 10° NNW 22:38:57 48° ENE 22:41:31 29° ESE
Cosmos 1633 Rocket 3.3 22:36:53 22° SSW 22:39:39 68° W 22:44:01 10° N
Cosmos 1726 2.8 22:37:54 10° NNW 22:41:35 50° W 22:43:05 30° SSW
Cosmos 2219 4.3 22:37:39 10° SW 22:43:10 46° WNW 22:48:41 10° NNE
Tiangong 1 2.3 22:40:51 10° WSW 22:42:38 31° SW 22:42:38 31° SW
NOSS 3-1 (A) 3.5 22:39:42 10° SW 22:45:34 82° NW 22:52:08 10° NNE
DMSP B5D2-2 4.1 22:40:29 10° NNE 22:45:40 63° ESE 22:47:50 34° S
Lacrosse 4 Rocket 3.7 22:43:18 10° N 22:46:09 17° NE 22:48:18 12° E
Cosmos 2333 4.4 22:44:36 10° NNW 22:50:16 64° WSW 22:52:56 32° S
Cosmos 1271 Rocket 2.9 22:46:51 10° NNW 22:50:39 66° W 22:51:39 45° SSW
Cosmos 1703 3.4 22:50:01 38° SSW 22:51:23 71° W 22:55:18 10° N
Cosmos 2237 Rocket 2.5 22:46:15 10° NNW 22:51:53 56° ENE 22:54:11 34° SE
Cosmos 2082 3.8 22:52:44 34° S 22:55:06 59° ESE 23:00:43 10° NNE
USA 32 4.4 22:53:46 10° NNW 22:58:57 60° W 23:01:35 28° SSW
Iridium 2 4.2 23:01:04 39° SW 23:02:10 55° W 23:05:59 10° N
Cosmos 1241 Rocket 4.3 22:59:19 24° SSW 23:03:13 73° ESE 23:09:28 10° NE
COSMOS 2455 3.8 22:57:55 10° NNW 23:03:30 37° NE 23:06:26 24° ESE
Cosmos 2360 Rocket 4.3 22:59:52 10° WNW 23:03:32 18° W 23:07:12 10° SW
Meteor 2-10 4.4 23:00:27 10° NNW 23:06:08 67° W 23:08:39 34° SSW
ATLAS 2AS CENTAUR R/B 3.0 23:03:26 25° S 23:07:57 62° ESE 23:15:50 10° NE
Meteor 1-4 Rocket 3.9 23:05:34 10° NNW 23:08:58 33° W 23:09:49 29° WSW
ERBS 3.8 23:12:03 29° ENE 23:12:03 29° ENE 23:13:54 10° NE
Nadezhda 1 Rocket 4.0 23:08:43 10° NNW 23:14:47 71° W 23:17:27 35° SSW
Cosmos 1933 3.8 23:16:48 10° N 23:20:46 48° E 23:20:46 48° E
Cosmos 1626 2.5 23:20:38 55° WSW 23:21:00 59° W 23:24:44 10° N
IGS 5A 4.1 23:21:56 42° SW 23:22:38 46° W 23:26:40 10° NNW
Cosmos 1937 Rocket 4.5 23:20:01 15° SW 23:24:10 44° WNW 23:29:10 10° N
COS B Rocket 3.9 23:22:31 10° NNE 23:25:49 44° ENE 23:25:49 44° ENE
ATLAS 3B R/B 3.1 23:20:03 10° NNW 23:26:58 56° NE 23:30:03 32° ESE
Cosmos 2227 Rocket 2.4 23:27:04 27° SW 23:30:12 70° WNW 23:35:53 10° NNE
Okean 1-7 3.8 23:28:07 10° N 23:32:05 37° ENE 23:32:05 37° ENE
Cosmos 1709 Rocket 3.8 23:32:45 45° S 23:34:48 87° E 23:40:57 10° N
Cosmos 1703 Rocket 3.5 23:30:31 10° N 23:34:52 67° E 23:35:00 66° E
Cosmos 2221 Rocket 3.5 23:35:25 10° N 23:39:59 72° E 23:40:13 71° ESE
Terra 3.1 23:39:02 27° SW 23:40:16 31° W 23:44:30 10° NNW
H-2A R/B 3.4 23:39:08 25° SW 23:41:03 32° W 23:45:53 10° NNW
Cosmos 44 Rocket 4.3 23:42:25 34° E 23:42:25 34° E 23:46:20 10° NE
Cosmos 2333 Rocket 2.7 23:36:20 10° NW 23:41:52 50° WSW 23:43:13 42° SSW
NOSS 2-3 (E) 4.4 23:43:22 43° E 23:43:22 43° E 23:48:01 10° NE
SL-16 R/B 2.3 23:38:53 10° NNW 23:44:33 67° ENE 23:45:52 51° ESE
Cosmos 1269 Rocket 3.9 23:41:55 10° NNW 23:47:16 88° ENE 23:48:05 65° SSE
GEOS 3 Rocket 4.2 23:46:31 36° E 23:48:16 51° NE 23:53:18 10° NNW
CZ-4C R/B 4.5 23:45:04 10° NNW 23:50:47 27° NE 23:56:58 10° E
Cosmos 1455 4.0 23:49:58 10° NW 23:53:01 23° W 23:53:11 23° W
Cosmos 1900 4.2 23:48:49 10° NNW 23:53:49 82° ENE 23:54:14 74° ESE
